SV2BZQ-2 Thessalonik GR current weather conditions

sailwx.info

Wind from 207 at 2 knots gusting 9

Air temperature 18.3° C
Dewpoint 14.4° C

Last reported at 2016-May-01 14:49 UTC.
Time now 2016-May-01 15:28 UTC

Location: N 40°41' E 022°51'.
View on Google Maps.

See reports from other nearby stations

  
Tides and Currents Weather Stations Pressure Air Temp Water Temp Dewpoint Dewpoint Depression Visibility Wind Speed Wind Dir Waves Ship Positions
date/time (UTC)wind fromknots sea level pressurealtimeterstation pressurevisibilityair tempwater tempwave heightnotes
2016-May-01 14:49 207 2 gusting 9 18.3
2016-May-01 14:45 211 1 gusting 7 18.9
2016-May-01 14:39 207 0 gusting 6 18.9
2016-May-01 14:35 211 0 gusting 5 19.4
2016-May-01 14:29 206 0 gusting 5 19.4
2016-May-01 14:25 137 0 gusting 4 19.4
2016-May-01 14:19 178 1 gusting 5 19.4
2016-May-01 14:15 157 1 gusting 6 19.4
2016-May-01 14:11 205 1 gusting 6 19.4
2016-May-01 14:05 165 0 gusting 5 19.4
2016-May-01 14:01 178 0 gusting 6 20.0
2016-May-01 13:55 209 1 gusting 6 20.0
2016-May-01 13:51 144 2 gusting 7 20.0
2016-May-01 13:45 214 2 gusting 7 20.0
2016-May-01 13:39 173 1 gusting 6 20.0
2016-May-01 13:35 211 0 gusting 4 20.6
2016-May-01 13:30 144 0 gusting 6 20.6
2016-May-01 13:24 136 1 gusting 6 20.0
2016-May-01 13:20 156 1 gusting 6 20.6
2016-May-01 13:14 160 1 gusting 7 20.0
2016-May-01 13:10 180 2 gusting 10 20.0
2016-May-01 13:04 201 3 gusting 10 20.0
2016-May-01 13:00 175 3 gusting 12 20.0
2016-May-01 12:54 204 2 gusting 12 20.6
2016-May-01 12:51 153 0 gusting 10 20.6
2016-May-01 12:44 165 3 gusting 11 20.6
2016-May-01 12:40 165 4 gusting 11 20.6
2016-May-01 12:36 192 4 gusting 10 20.6
2016-May-01 12:30 167 3 gusting 9 21.7
2016-May-01 12:24 210 3 gusting 13 21.1
2016-May-01 12:20 161 3 gusting 13 21.1
2016-May-01 12:14 161 3 gusting 9 21.7
2016-May-01 12:10 169 3 gusting 9 21.7
2016-May-01 12:06 171 3 gusting 9 21.7
2016-May-01 12:00 138 4 gusting 9 21.7
2016-May-01 11:56 171 4 gusting 9 21.7
2016-May-01 11:50 118 2 gusting 9 21.7
2016-May-01 11:46 169 3 gusting 8 22.2
2016-May-01 11:39 153 3 gusting 9 22.2
2016-May-01 11:36 187 4 gusting 9 21.7
2016-May-01 11:29 173 4 gusting 9 22.2
2016-May-01 11:25 207 3 gusting 7 22.2
2016-May-01 11:20 200 1 gusting 10 22.2
2016-May-01 11:16 173 4 gusting 10 21.7
2016-May-01 11:09 188 4 gusting 9 22.2
2016-May-01 11:05 194 3 gusting 9 22.2
2016-May-01 10:59 190 3 gusting 8 21.7
2016-May-01 10:55 205 4 gusting 12 21.7
2016-May-01 10:50 157 3 gusting 11 21.7
2016-May-01 10:45 140 3 gusting 11 21.7
2016-May-01 10:39 182 3 gusting 8 21.7
2016-May-01 10:35 205 3 gusting 9 21.7
2016-May-01 10:29 186 3 gusting 9 22.2
2016-May-01 10:25 188 3 gusting 10 21.7
2016-May-01 10:20 188 4 gusting 9 21.7
2016-May-01 10:15 192 2 gusting 7 22.2
2016-May-01 10:09 145 3 gusting 7 21.7
2016-May-01 10:05 159 3 gusting 7 21.7
2016-May-01 10:01 191 3 gusting 7 21.7
2016-May-01 09:55 164 3 gusting 7 21.1
2016-May-01 09:51 156 2 gusting 7 21.1
2016-May-01 09:45 155 2 gusting 8 21.1
2016-May-01 09:41 169 3 gusting 9 21.1
2016-May-01 09:35 151 3 gusting 9 21.1
2016-May-01 09:31 176 2 gusting 9 21.1
2016-May-01 09:24 146 4 gusting 9 21.1
2016-May-01 09:20 175 4 gusting 10 21.1
2016-May-01 09:14 153 3 gusting 9 21.1
2016-May-01 09:10 165 3 gusting 9 20.6
2016-May-01 09:04 161 4 gusting 8 20.6
2016-May-01 09:00 180 3 gusting 9 21.1
2016-May-01 08:54 142 1 gusting 9 21.1
2016-May-01 08:50 164 2 gusting 8 21.1
2016-May-01 08:44 157 2 gusting 9 20.6
2016-May-01 08:40 182 2 gusting 9 20.6
2016-May-01 08:34 219 2 gusting 6 20.6
2016-May-01 08:30 163 2 gusting 6 20.6
2016-May-01 08:24 192 2 gusting 6 20.6
2016-May-01 08:20 125 2 gusting 11 20.0
2016-May-01 08:14 151 2 gusting 11 20.6
2016-May-01 08:10 113 2 gusting 6 20.0
2016-May-01 08:04 161 2 gusting 6 20.0
2016-May-01 08:00 210 1 gusting 5 20.0
2016-May-01 07:54 150 2 gusting 7 20.0
2016-May-01 07:50 163 1 gusting 7 20.6
2016-May-01 07:46 114 1 gusting 5 20.0
2016-May-01 07:40 122 1 gusting 6 19.4
2016-May-01 07:36 133 2 gusting 6 19.4
2016-May-01 07:29 146 1 gusting 6 19.4
2016-May-01 07:25 167 1 gusting 6 18.9
2016-May-01 07:20 163 2 gusting 6 18.3
2016-May-01 07:15 164 1 gusting 6 18.9
2016-May-01 07:09 207 2 gusting 8 18.9
2016-May-01 07:06 194 1 gusting 8 18.9
2016-May-01 06:59 175 1 gusting 5 19.4
2016-May-01 06:55 206 1 gusting 5 19.4
2016-May-01 06:49 194 1 gusting 5 19.4
2016-May-01 06:45 171 0 gusting 6 19.4
2016-May-01 06:39 171 1 gusting 6 19.4
2016-May-01 06:35 164 0 gusting 6 19.4
2016-May-01 06:31 202 0 gusting 4 18.9
2016-May-01 06:25 214 0 gusting 3 18.9
2016-May-01 06:21 156 0 gusting 4 18.3
2016-May-01 06:15 150 0 gusting 4 18.3
2016-May-01 06:10 165 0 gusting 4 17.8
2016-May-01 06:04 175 17.8
2016-May-01 06:01 171 17.2
2016-May-01 05:54 171 16.7
2016-May-01 05:50 171 16.7
2016-May-01 05:44 180 16.1
2016-May-01 05:40 180 16.1
2016-May-01 05:34 180 15.6
2016-May-01 05:30 180 15.0
2016-May-01 05:24 180 15.0
2016-May-01 05:20 180 14.4
2016-May-01 05:14 237 14.4
2016-May-01 05:10 237 13.9
2016-May-01 05:04 237 13.9
2016-May-01 05:00 238 13.3
2016-May-01 04:54 266 12.8
2016-May-01 04:50 267 12.8
2016-May-01 04:46 265 12.8
2016-May-01 04:40 267 12.2
2016-May-01 04:35 267 12.2
2016-May-01 04:29 267 12.2
2016-May-01 04:25 267 11.7
2016-May-01 04:19 267 11.7
2016-May-01 04:15 267 11.7
2016-May-01 04:09 267 11.7
2016-May-01 04:05 267 11.7
2016-May-01 03:59 266 11.7
2016-May-01 03:55 267 11.7
2016-May-01 03:49 267 11.7
2016-May-01 03:45 267 11.7
2016-May-01 03:39 267 11.7
2016-May-01 03:35 265 11.7
2016-May-01 03:31 265 11.7
2016-May-01 03:25 265 11.7
2016-May-01 03:21 265 11.7
2016-May-01 03:15 265 11.7
2016-May-01 03:11 265 11.7
2016-May-01 03:05 261 11.7
2016-May-01 03:01 261 11.7
2016-May-01 02:55 260 11.7
2016-May-01 02:51 261 0 gusting 3 12.2
2016-May-01 02:44 261 0 gusting 3 12.2
2016-May-01 02:40 259 12.2
2016-May-01 02:34 259 12.8
2016-May-01 02:30 259 12.8
2016-May-01 02:24 259 12.8
2016-May-01 02:20 259 12.8
2016-May-01 02:14 259 12.8
2016-May-01 02:10 259 12.8
2016-May-01 02:04 259 12.8
2016-May-01 02:00 259 12.8
2016-May-01 01:54 259 13.3
2016-May-01 01:50 259 12.8
2016-May-01 01:44 259 13.3
2016-May-01 01:40 259 13.3
2016-May-01 01:36 259 13.3
2016-May-01 01:30 259 13.3
2016-May-01 01:26 259 13.3
2016-May-01 01:20 259 12.8
2016-May-01 01:16 259 13.3
2016-May-01 01:09 257 13.3
2016-May-01 01:05 250 13.3
2016-May-01 00:59 249 13.3
2016-May-01 00:55 250 13.3
2016-May-01 00:50 249 13.3
2016-May-01 00:45 249 13.9
2016-May-01 00:39 249 13.9
2016-May-01 00:35 249 0 gusting 3 13.9
2016-May-01 00:29 249 0 gusting 3 13.9
2016-May-01 00:25 248 0 gusting 3 13.9
2016-May-01 00:19 245 13.9
2016-May-01 00:15 228 13.9
2016-May-01 00:09 218 14.4
2016-May-01 00:05 218 14.4
2016-Apr-30 23:59 217 14.4
2016-Apr-30 23:55 217 14.4
2016-Apr-30 23:51 215 14.4
2016-Apr-30 23:45 215 14.4
2016-Apr-30 23:41 215 14.4
2016-Apr-30 23:35 215 14.4
2016-Apr-30 23:30 215 14.4
2016-Apr-30 23:25 215 15.0
2016-Apr-30 23:20 215 15.0
2016-Apr-30 23:14 215 15.6
2016-Apr-30 23:10 214 15.6
2016-Apr-30 23:04 214 15.6
2016-Apr-30 23:00 214 15.0
2016-Apr-30 22:54 214 15.0
2016-Apr-30 22:50 215 15.0
2016-Apr-30 22:44 215 15.0
2016-Apr-30 22:40 214 15.0
2016-Apr-30 22:34 214 14.4
2016-Apr-30 22:30 214 14.4
2016-Apr-30 22:24 214 14.4
2016-Apr-30 22:20 214 15.0
2016-Apr-30 22:14 214 15.0
2016-Apr-30 22:10 214 15.0
2016-Apr-30 22:04 215 14.4
2016-Apr-30 22:00 214 14.4
2016-Apr-30 21:54 215 14.4
2016-Apr-30 21:50 214 14.4
2016-Apr-30 21:44 211 14.4
2016-Apr-30 21:40 206 14.4
2016-Apr-30 21:36 205 14.4
2016-Apr-30 21:29 205 15.0
2016-Apr-30 21:25 204 15.6
2016-Apr-30 21:19 180 15.6
2016-Apr-30 21:15 180 15.6
2016-Apr-30 21:09 180 15.6
2016-Apr-30 21:05 179 15.6
2016-Apr-30 20:59 180 15.6
2016-Apr-30 20:55 179 15.6
2016-Apr-30 20:49 180 15.6
2016-Apr-30 20:46 180 15.6
2016-Apr-30 20:41 179 15.6
2016-Apr-30 20:35 179 15.6
2016-Apr-30 20:30 179 15.6
2016-Apr-30 20:24 180 15.6
2016-Apr-30 20:20 180 15.6
2016-Apr-30 20:14 180 16.1
2016-Apr-30 20:10 179 16.1
2016-Apr-30 20:04 179 16.1
2016-Apr-30 20:00 180 16.1
2016-Apr-30 19:54 179 16.1
2016-Apr-30 19:50 180 16.1
2016-Apr-30 19:46 180 16.1
2016-Apr-30 19:40 180 16.7
2016-Apr-30 19:34 180 16.7
2016-Apr-30 19:30 179 16.1
2016-Apr-30 19:24 179 16.7
2016-Apr-30 19:20 180 16.7
2016-Apr-30 19:15 179 16.7
2016-Apr-30 19:10 179 17.2
2016-Apr-30 19:06 180 17.2
2016-Apr-30 19:01 180 16.7
2016-Apr-30 18:56 180 17.2
2016-Apr-30 18:50 180 17.2
2016-Apr-30 18:46 180 17.2
2016-Apr-30 18:40 180 17.2
2016-Apr-30 18:36 179 17.2
2016-Apr-30 18:30 180 17.2
2016-Apr-30 18:25 179 17.2
2016-Apr-30 18:19 180 17.2
2016-Apr-30 18:15 180 17.8
2016-Apr-30 18:09 182 17.8
2016-Apr-30 18:05 182 17.8
2016-Apr-30 17:59 182 17.8
2016-Apr-30 17:55 183 17.8
2016-Apr-30 17:49 183 17.8
2016-Apr-30 17:45 183 17.8
2016-Apr-30 17:39 184 18.3
2016-Apr-30 17:35 184 18.3
2016-Apr-30 17:31 184 18.3
2016-Apr-30 17:25 184 18.3
2016-Apr-30 17:21 184 18.3
2016-Apr-30 17:15 184 18.3
2016-Apr-30 17:09 185 18.9
2016-Apr-30 17:05 185 18.9
2016-Apr-30 17:01 190 18.9
2016-Apr-30 16:55 185 18.9
2016-Apr-30 16:51 180 18.9
2016-Apr-30 16:45 184 18.9
2016-Apr-30 16:40 188 0 gusting 6 18.9
2016-Apr-30 16:34 161 1 gusting 6 19.4
2016-Apr-30 16:30 181 0 gusting 6 19.4
2016-Apr-30 16:24 190 1 gusting 8 19.4
2016-Apr-30 16:20 179 1 gusting 8 20.0
2016-Apr-30 16:14 184 0 gusting 6 20.0
2016-Apr-30 16:10 206 1 gusting 7 20.0
2016-Apr-30 16:04 163 1 gusting 8 20.6
2016-Apr-30 16:00 166 1 gusting 10 20.6
2016-Apr-30 15:54 182 1 gusting 10 20.6
2016-Apr-30 15:50 196 1 gusting 8 20.6
2016-Apr-30 15:45 180 1 gusting 9 20.0
2016-Apr-30 15:40 184 1 gusting 9 20.6
2016-Apr-30 15:34 166 2 gusting 8 20.6
2016-Apr-30 15:30 161 2 gusting 9 20.6
2016-Apr-30 15:24 186 1 gusting 9 20.6
2016-Apr-30 15:20 190 1 gusting 6 21.1
2016-Apr-30 15:16 206 1 gusting 6 20.6
2016-Apr-30 15:10 184 1 gusting 6 21.1
2016-Apr-30 15:06 187 2 gusting 7 21.1
2016-Apr-30 15:00 171 2 gusting 7 21.7
2016-Apr-30 14:56 165 2 gusting 7 21.7
2016-Apr-30 14:50 181 1 gusting 11 21.7
2016-Apr-30 14:46 169 1 gusting 11 21.7
2016-Apr-30 14:40 179 1 gusting 7 22.2
2016-Apr-30 14:36 167 2 gusting 7 21.7
2016-Apr-30 14:30 143 1 gusting 8 21.7
2016-Apr-30 14:26 165 0 gusting 8 22.2
2016-Apr-30 14:19 157 0 gusting 6 22.2
2016-Apr-30 14:15 173 0 gusting 6 21.7
2016-Apr-30 14:09 175 2 gusting 9 21.7
2016-Apr-30 14:05 158 2 gusting 10 21.7
2016-Apr-30 13:59 194 2 gusting 10 21.7
2016-Apr-30 13:55 157 2 gusting 8 21.1
2016-Apr-30 13:49 176 1 gusting 7 21.1
2016-Apr-30 13:44 193 1 gusting 7 21.1
2016-Apr-30 13:40 159 1 gusting 6 21.1
2016-Apr-30 13:34 177 1 gusting 6 21.1
2016-Apr-30 13:30 150 0 gusting 6 21.1
2016-Apr-30 13:24 179 0 gusting 6 21.7
2016-Apr-30 13:20 169 1 gusting 6 21.1
2016-Apr-30 13:14 133 2 gusting 7 21.1
2016-Apr-30 13:10 143 1 gusting 7 21.7
2016-Apr-30 13:04 148 1 gusting 6 21.7
2016-Apr-30 13:00 167 0 gusting 6 21.7
2016-Apr-30 12:54 148 0 gusting 3 22.2
2016-Apr-30 12:50 126 22.2
2016-Apr-30 12:46 267 22.2
2016-Apr-30 12:40 277 21.7
2016-Apr-30 12:36 278 21.7
2016-Apr-30 12:30 275 21.7
2016-Apr-30 12:26 286 22.2
2016-Apr-30 12:20 287 21.7
2016-Apr-30 12:16 286 0 gusting 2 21.7
2016-Apr-30 12:10 280 0 gusting 3 21.7
2016-Apr-30 12:06 323 0 gusting 4 21.7
2016-Apr-30 12:00 302 1 gusting 6 21.7
2016-Apr-30 11:56 342 2 gusting 6 21.7
2016-Apr-30 11:50 291 2 gusting 7 21.7
2016-Apr-30 11:45 288 1 gusting 7 21.7
2016-Apr-30 11:40 304 2 gusting 6 21.7
2016-Apr-30 11:35 291 1 gusting 6 21.7
2016-Apr-30 11:30 325 0 gusting 4 21.7
2016-Apr-30 11:26 277 1 gusting 5 21.7
2016-Apr-30 11:19 274 2 gusting 6 22.2
2016-Apr-30 11:15 271 1 gusting 6 22.8
2016-Apr-30 11:09 230 1 gusting 6 22.8
2016-Apr-30 11:05 107 2 gusting 6 22.8
2016-Apr-30 10:59 355 0 gusting 5 22.2
2016-Apr-30 10:55 010 22.2
2016-Apr-30 10:49 019 0 gusting 4 21.1
2016-Apr-30 10:45 019 0 gusting 4 21.7
2016-Apr-30 10:39 273 0 gusting 2 21.1
2016-Apr-30 10:35 273 1 gusting 6 21.1
2016-Apr-30 10:29 272 3 gusting 7 21.1
2016-Apr-30 10:25 273 2 gusting 7 21.1
2016-Apr-30 10:19 277 2 gusting 6 20.6
2016-Apr-30 10:15 261 1 gusting 5 21.1
2016-Apr-30 10:09 264 2 gusting 6 21.1
2016-Apr-30 10:05 284 2 gusting 6 21.1
2016-Apr-30 09:59 246 0 gusting 5 21.7
2016-Apr-30 09:55 263 0 gusting 5 21.1
2016-Apr-30 09:49 306 1 gusting 5 21.1
2016-Apr-30 09:45 025 0 gusting 5 21.1
2016-Apr-30 09:39 037 20.0
2016-Apr-30 09:35 037 0 gusting 2 20.0
2016-Apr-30 09:31 037 1 gusting 2 20.0
2016-Apr-30 09:25 035 0 gusting 4 20.0
2016-Apr-30 09:21 034 1 gusting 5 20.0
2016-Apr-30 09:15 247 1 gusting 5 20.0
2016-Apr-30 09:11 268 0 gusting 4 20.0
2016-Apr-30 09:05 302 0 gusting 5 20.0
2016-Apr-30 09:01 335 1 gusting 5 20.0
2016-Apr-30 08:55 330 1 gusting 6 19.4
2016-Apr-30 08:50 331 2 gusting 6 20.0
2016-Apr-30 08:44 330 2 gusting 6 20.0
2016-Apr-30 08:40 300 2 gusting 6 19.4
2016-Apr-30 08:34 292 2 gusting 6 19.4
2016-Apr-30 08:30 344 3 gusting 6 19.4
2016-Apr-30 08:25 280 2 gusting 5 20.0
2016-Apr-30 08:20 344 1 gusting 4 20.0
2016-Apr-30 08:14 338 2 gusting 8 19.4
2016-Apr-30 08:10 338 3 gusting 8 19.4
2016-Apr-30 08:04 303 2 gusting 8 19.4
2016-Apr-30 08:00 301 1 gusting 6 19.4
2016-Apr-30 07:54 263 1 gusting 6 18.9
2016-Apr-30 07:50 313 2 gusting 6 18.9
2016-Apr-30 07:44 269 3 gusting 6 18.9
2016-Apr-30 07:40 284 2 gusting 6 18.9
2016-Apr-30 07:34 288 1 gusting 6 18.9
2016-Apr-30 07:30 305 0 gusting 5 18.9
2016-Apr-30 07:24 284 0 gusting 3 18.3
2016-Apr-30 07:20 284 1 gusting 4 17.8
2016-Apr-30 07:14 313 1 gusting 5 17.2
2016-Apr-30 07:10 277 1 gusting 5 16.7
2016-Apr-30 07:04 280 1 gusting 4 16.7
2016-Apr-30 07:00 321 1 gusting 5 16.1
2016-Apr-30 06:54 299 1 gusting 5 16.1
2016-Apr-30 06:50 269 1 gusting 5 16.1
2016-Apr-30 06:44 265 2 gusting 6 15.6
2016-Apr-30 06:40 284 2 gusting 6 15.6
2016-Apr-30 06:34 272 1 gusting 6 15.6
2016-Apr-30 06:30 286 0 gusting 3 15.6
2016-Apr-30 06:24 288 0 gusting 2 15.0
2016-Apr-30 06:20 289 1 gusting 3 15.0
2016-Apr-30 06:14 290 1 gusting 3 14.4
2016-Apr-30 06:10 290 0 gusting 2 14.4
2016-Apr-30 06:06 290 0 gusting 2 13.9
2016-Apr-30 06:00 289 13.3
2016-Apr-30 05:56 288 1 gusting 5 13.3
2016-Apr-30 05:50 283 1 gusting 5 13.3
2016-Apr-30 05:46 290 1 gusting 4 13.3
2016-Apr-30 05:40 292 12.8
2016-Apr-30 05:36 313 12.8
2016-Apr-30 05:30 317 12.2
2016-Apr-30 05:25 317 12.2
2016-Apr-30 05:19 317 11.7
2016-Apr-30 05:15 317 11.7
2016-Apr-30 05:09 317 11.1
2016-Apr-30 05:05 317 11.1
2016-Apr-30 04:59 317 10.6
2016-Apr-30 04:55 317 10.6
2016-Apr-30 04:49 317 10.6
2016-Apr-30 04:45 317 10.0
2016-Apr-30 04:41 314 0 gusting 3 10.0
2016-Apr-30 04:35 306 0 gusting 6 10.0
2016-Apr-30 04:31 301 1 gusting 6 10.0
2016-Apr-30 04:25 300 1 gusting 6 10.0
2016-Apr-30 04:21 302 0 gusting 6 10.0
2016-Apr-30 04:14 295 10.0
2016-Apr-30 04:10 290 10.0
2016-Apr-30 04:04 288 10.0
2016-Apr-30 04:00 288 10.0
2016-Apr-30 03:54 290 10.0
2016-Apr-30 03:50 290 10.0
2016-Apr-30 03:44 290 10.0
2016-Apr-30 03:40 290 10.0
2016-Apr-30 03:34 290 10.0
2016-Apr-30 03:30 290 10.0
2016-Apr-30 03:24 290 10.0
2016-Apr-30 03:20 290 10.0
2016-Apr-30 03:14 290 10.0
2016-Apr-30 03:10 283 10.0
2016-Apr-30 03:04 281 0 gusting 5 10.0
2016-Apr-30 03:00 279 0 gusting 5 10.6
2016-Apr-30 02:54 292 10.6
2016-Apr-30 02:50 296 10.0
2016-Apr-30 02:44 295 10.0
2016-Apr-30 02:40 295 10.0
2016-Apr-30 02:36 295 10.0
2016-Apr-30 02:30 295 10.0
2016-Apr-30 02:25 296 10.0
2016-Apr-30 02:19 296 10.0
2016-Apr-30 02:15 296 10.0
2016-Apr-30 02:09 296 10.0
2016-Apr-30 02:05 296 10.0
2016-Apr-30 01:59 300 10.0
2016-Apr-30 01:55 298 10.0
2016-Apr-30 01:49 301 0 gusting 2 10.6
2016-Apr-30 01:45 315 0 gusting 6 10.6
2016-Apr-30 01:39 297 1 gusting 6 10.6
2016-Apr-30 01:35 311 1 gusting 4 10.6
2016-Apr-30 01:29 315 2 gusting 6 10.6
2016-Apr-30 01:25 303 2 gusting 6 10.6
2016-Apr-30 01:19 318 2 gusting 6 10.6
2016-Apr-30 01:15 318 2 gusting 6 10.6
2016-Apr-30 01:09 296 0 gusting 6 10.6
2016-Apr-30 01:05 299 10.6
2016-Apr-30 00:59 292 11.1
2016-Apr-30 00:55 291 11.1
2016-Apr-30 00:49 291 11.1
2016-Apr-30 00:45 290 11.1
2016-Apr-30 00:39 283 11.1
2016-Apr-30 00:35 283 11.1
2016-Apr-30 00:29 282 11.1
2016-Apr-30 00:25 290 11.1
2016-Apr-30 00:19 291 11.7
2016-Apr-30 00:15 290 11.7
2016-Apr-30 00:11 296 11.7
2016-Apr-30 00:05 296 11.7
2016-Apr-30 00:01 295 11.7
2016-Apr-29 23:56 295 11.1
2016-Apr-29 23:50 296 11.7
2016-Apr-29 23:44 286 11.7
2016-Apr-29 23:40 309 0 gusting 3 11.7
2016-Apr-29 23:34 308 1 gusting 6 11.7
2016-Apr-29 23:30 306 1 gusting 6 12.2
2016-Apr-29 23:24 302 12.2
2016-Apr-29 23:20 302 12.2
2016-Apr-29 23:14 303 0 gusting 3 12.2
2016-Apr-29 23:10 300 0 gusting 2 12.2
2016-Apr-29 23:04 300 12.2
2016-Apr-29 23:00 299 12.8
2016-Apr-29 22:54 298 12.8
2016-Apr-29 22:50 299 12.8
2016-Apr-29 22:44 298 12.8
2016-Apr-29 22:40 299 12.8
2016-Apr-29 22:34 299 12.8
2016-Apr-29 22:30 296 12.8
2016-Apr-29 22:24 296 12.8
2016-Apr-29 22:20 296 12.8
2016-Apr-29 22:16 296 12.8
2016-Apr-29 22:10 296 12.8
2016-Apr-29 22:06 296 12.8
2016-Apr-29 22:00 296 12.8
2016-Apr-29 21:55 296 12.8
2016-Apr-29 21:49 296 12.8
2016-Apr-29 21:45 296 12.8
2016-Apr-29 21:39 296 12.8
2016-Apr-29 21:35 296 12.8
2016-Apr-29 21:29 296 12.8
2016-Apr-29 21:25 296 12.8
2016-Apr-29 21:19 295 12.8
2016-Apr-29 21:15 294 12.8
2016-Apr-29 21:09 294 12.8
2016-Apr-29 21:05 295 13.3
2016-Apr-29 20:59 294 13.3
2016-Apr-29 20:55 294 13.3
2016-Apr-29 20:49 294 13.3
2016-Apr-29 20:43 294 13.3
2016-Apr-29 20:39 294 13.3
2016-Apr-29 20:35 294 13.3
2016-Apr-29 20:31 294 13.9
2016-Apr-29 20:25 294 13.9
2016-Apr-29 20:21 294 13.9
2016-Apr-29 20:14 294 13.9
2016-Apr-29 20:11 294 13.9
2016-Apr-29 20:04 294 13.3
2016-Apr-29 20:00 294 13.3
2016-Apr-29 19:54 294 13.3
2016-Apr-29 19:50 294 13.3
2016-Apr-29 19:44 293 13.3
2016-Apr-29 19:40 292 13.3
2016-Apr-29 19:34 292 13.3
2016-Apr-29 19:30 294 13.3
2016-Apr-29 19:24 294 13.3
2016-Apr-29 19:20 294 13.3
2016-Apr-29 19:16 292 13.3
2016-Apr-29 19:09 292 13.9
2016-Apr-29 19:05 293 0 gusting 3 13.9
2016-Apr-29 18:59 293 0 gusting 3 13.9
2016-Apr-29 18:55 292 13.9
2016-Apr-29 18:49 287 13.9
2016-Apr-29 18:45 286 13.9
2016-Apr-29 18:39 284 13.9
2016-Apr-29 18:35 288 13.9
2016-Apr-29 18:29 289 0 gusting 3 13.9
2016-Apr-29 18:25 288 0 gusting 3 13.9
2016-Apr-29 18:19 283 0 gusting 4 14.4
2016-Apr-29 18:15 292 0 gusting 4 14.4
2016-Apr-29 18:11 288 0 gusting 3 13.9
2016-Apr-29 18:05 038 13.9
2016-Apr-29 18:01 038 13.9
2016-Apr-29 17:55 055 13.9
2016-Apr-29 17:50 055 13.9
2016-Apr-29 17:44 055 13.9
2016-Apr-29 17:40 053 13.9
2016-Apr-29 17:34 054 13.9
2016-Apr-29 17:31 054 13.9
2016-Apr-29 17:24 054 13.9
2016-Apr-29 17:20 054 13.9
2016-Apr-29 17:14 054 13.9
2016-Apr-29 17:10 318 13.9
2016-Apr-29 17:04 317 14.4
2016-Apr-29 17:00 317 14.4
2016-Apr-29 16:54 317 14.4
2016-Apr-29 16:50 317 14.4
2016-Apr-29 16:44 317 14.4
2016-Apr-29 16:40 317 14.4
2016-Apr-29 16:36 317 14.4
2016-Apr-29 16:30 317 14.4
2016-Apr-29 16:24 317 14.4
2016-Apr-29 16:20 317 14.4
2016-Apr-29 16:15 317 14.4
2016-Apr-29 16:09 317 14.4
2016-Apr-29 16:05 317 14.4
2016-Apr-29 15:59 317 0 gusting 4 14.4
2016-Apr-29 15:56 317 13.9
2016-Apr-29 15:49 327 0 gusting 4 14.4
2016-Apr-29 15:45 301 0 gusting 4 14.4
2016-Apr-29 15:39 290 14.4
2016-Apr-29 15:35 290 13.9
2016-Apr-29 15:29 290 13.9
2016-Apr-29 15:25 290 13.9
2016-Apr-29 15:19 290 13.9
2016-Apr-29 15:15 290 13.9
2016-Apr-29 15:11 290 13.9
2016-Apr-29 15:05 290 13.9
2016-Apr-29 15:00 290 13.9